パンスターズ彗星

C/2017 F2 ( PanSTARRS )

English version
Home page
Updated on September 23, 2018

---------------------------------------------------------------------

・ プロフィール

発見日 2017年3月31日
発見光度 21.2等
発見者 Pan-STARRS 1 telescope (Haleakala)

・ 写真集

・ 軌道要素

Epoch 2017 Nov. 23.0 TT = JDT 2458080.5
T 2017 Nov. 26.31245 TT                                 MPCW
q   6.9277348            (2000.0)            P               Q
z  -0.0007775      Peri.  134.91186     -0.87743754     -0.22775562
 +/-0.0000037      Node    38.66777     -0.22107970     -0.58904760
e   1.0053865      Incl.   42.50779     +0.42570781     -0.77533883
From 57 observations 2017 Mar. 31-2018 June 7, mean residual 0".5.

・ 光度変化

        m1 = 7.5 + 5 logΔ + 10.0 log r

---------------------------------------------------------------------

軌道要素はM.P.E.C. 2018-S50に掲載されたものです。
光度グラフはComet for Windowsで作成したものです。

---------------------------------------------------------------------

Copyright(C) Seiichi Yoshida (comet@aerith.net). All rights reserved.